Extreme hitte van: 25-08-2019 09:00 tot: 27-08-2019 09:00 waarschuwing voor: Extreme hitte niveau: Geel info button
Aanhoudende hitte, Het Nationaal Hitteplan van het RIVM is actief.Er is sprake van aanhoudende hitte.Besteed extra zorg en aandacht aan kwetsbare mensen in uw omgeving.Met name ouderen en mensen met een chronische aandoening wordt geadviseerd maatregelen te nemen: drink voldoende, houd uzelf en uw woning koel.



Onweer radar Meer informatie blitzortung!


Regen radar Meer informatie rain snow radar


Bezoek onze andere website:

Template documentation
and downloads

And another site



Select another period ( hide this area )

Eenheden Periode Custom range Directly to
Metrisch Engels Beide
Dagelijkse Wekelijkse Maandelijkse Jaarlijkse
use both date-selectors for a custom range
previous Dag
With this date

WeatherUnderground graphs for this period ( click here )


Dagelijkse Samenvatting Zondag 25 augustus 2019
Tijd Temp. ( °C ) Dew pt. ( °C ) Wind ( km/h ) van Windvlaag ( km/h ) Luchtdruk ( hPa ) Humid.( % ) Rainrate ( cm )
Hoog25,2 18,3 0,0 ( 0/0 ) 0,0 1019,2 93 -
Gemiddeld18,6 15,8 0,0 Kalm #135/135 0,0 1018,3 84 -
Laag15,6 14,0 -   0,0 1017,9 64 -
Dagelijkse Tabular details for Zondag 25 augustus 2019
Tijd Temp. ( °C ) Dew pt. ( °C ) Wind ( km/h ) van Windvlaag ( km/h ) Luchtdruk ( hPa ) Humid.( % ) Rainrate ( cm )
00:00 20,0 15,8   Kalm   1018,5 77 -
00:05 19,9 15,7   Kalm   1018,5 77 -
00:10 19,8 15,7   Kalm   1018,5 77 -
00:15 19,7 15,8   Kalm   1018,5 78 -
00:20 19,6 15,7   Kalm   1018,5 78 -
00:25 19,5 15,6   Kalm   1018,5 78 -
00:30 19,4 15,7   Kalm   1018,5 79 -
00:35 19,3 15,6   Kalm   1018,5 79 -
00:40 19,2 15,7   Kalm   1018,5 80 -
00:45 19,2 15,6   Kalm   1018,5 80 -
00:50 19,1 15,6   Kalm   1018,5 80 -
00:55 19,0 15,7   Kalm   1018,5 81 -
01:00 19,0 15,7   Kalm   1018,5 81 -
01:05 18,9 15,6   Kalm   1018,5 81 -
01:10 18,9 15,6   Kalm   1018,5 81 -
01:15 18,9 15,6   Kalm   1018,3 81 -
01:20 18,8 15,5   Kalm   1018,4 81 -
01:25 18,8 15,7   Kalm   1018,4 82 -
01:30 18,7 15,6   Kalm   1018,3 82 -
01:35 18,7 15,7   Kalm   1018,4 83 -
01:40 18,6 15,7   Kalm   1018,4 83 -
01:45 18,6 15,6   Kalm   1018,3 83 -
01:50 18,5 15,6   Kalm   1018,4 83 -
01:55 18,4 15,5   Kalm   1018,3 83 -
02:00 18,4 15,4   Kalm   1018,3 83 -
02:05 18,3 15,4   Kalm   1018,3 83 -
02:10 18,2 15,3   Kalm   1018,3 83 -
02:15 18,2 15,2   Kalm   1018,2 83 -
02:20 18,1 15,2   Kalm   1018,2 83 -
02:25 18,1 15,3   Kalm   1018,2 84 -
02:30 18,0 15,3   Kalm   1018,1 84 -
02:35 17,9 15,2   Kalm   1018,2 84 -
02:40 17,9 15,3   Kalm   1018,1 85 -
02:45 17,8 15,3   Kalm   1018,2 85 -
02:50 17,7 14,9   Kalm   1018,1 84 -
02:55 17,6 15,1   Kalm   1018,1 85 -
03:00 17,5 14,9   Kalm   1018,2 85 -
03:05 17,4 14,9   Kalm   1018,2 85 -
03:10 17,4 14,8   Kalm   1018,3 85 -
03:15 17,3 14,9   Kalm   1018,2 86 -
03:20 17,3 14,9   Kalm   1018,2 86 -
03:25 17,3 15,2   Kalm   1018,2 87 -
03:30 17,3 15,1   Kalm   1018,1 87 -
03:35 17,2 15,1   Kalm   1018,1 87 -
03:40 17,2 15,0   Kalm   1018,1 87 -
03:45 17,1 14,9   Kalm   1018,1 87 -
03:50 17,1 14,9   Kalm   1018,1 87 -
03:55 17,1 14,8   Kalm   1018,1 87 -
04:00 17,0 14,8   Kalm   1018,1 87 -
04:05 16,9 14,9   Kalm   1018,1 88 -
04:10 16,9 14,9   Kalm   1018,1 88 -
04:15 16,8 14,8   Kalm   1018,1 88 -
04:20 16,8 14,8   Kalm   1018,1 88 -
04:25 16,7 14,7   Kalm   1018,1 88 -
04:30 16,6 14,6   Kalm   1018,1 88 -
04:35 16,5 14,5   Kalm   1018,1 88 -
04:40 16,4 14,4   Kalm   1018,1 88 -
04:45 16,3 14,3   Kalm   1018,1 88 -
04:50 16,3 14,5   Kalm   1018,1 89 -
04:55 16,4 14,6   Kalm   1018,1 89 -
05:00 16,4 14,6   Kalm   1018,1 89 -
05:05 16,3 14,5   Kalm   1018,1 89 -
05:10 16,2 14,4   Kalm   1018,0 89 -
05:15 16,2 14,4   Kalm   1017,9 89 -
05:20 16,2 14,4   Kalm   1017,9 89 -
05:25 16,2 14,3   Kalm   1017,9 89 -
05:30 16,1 14,2   Kalm   1017,9 89 -
05:35 16,0 14,2   Kalm   1018,0 89 -
05:40 15,9 14,1   Kalm   1017,9 89 -
05:45 16,0 14,3   Kalm   1017,9 90 -
05:50 16,0 14,3   Kalm   1017,9 90 -
05:55 16,0 14,3   Kalm   1017,9 90 -
06:00 15,9 14,3   Kalm   1017,9 90 -
06:05 15,9 14,3   Kalm   1017,9 90 -
06:10 15,9 14,3   Kalm   1017,9 90 -
06:15 15,8 14,2   Kalm   1018,0 90 -
06:20 15,7 14,1   Kalm   1018,0 90 -
06:25 15,7 14,1   Kalm   1018,0 90 -
06:30 15,7 14,1   Kalm   1017,9 90 -
06:35 15,6 14,0   Kalm   1018,0 90 -
06:40 15,7 14,2   Kalm   1018,0 91 -
06:45 15,8 14,4   Kalm   1018,1 91 -
06:50 15,8 14,4   Kalm   1018,0 91 -
06:55 15,8 14,4   Kalm   1018,0 91 -
07:00 15,8 14,3   Kalm   1018,1 91 -
07:05 15,8 14,6   Kalm   1018,1 92 -
07:10 15,9 14,6   Kalm   1018,0 92 -
07:15 15,9 14,7   Kalm   1017,9 92 -
07:20 16,0 14,7   Kalm   1018,0 92 -
07:25 16,1 14,8   Kalm   1018,0 92 -
07:30 16,2 14,9   Kalm   1017,9 92 -
07:35 16,4 15,3   Kalm   1017,9 93 -
07:40 16,7 15,6   Kalm   1018,0 93 -
07:45 17,0 15,8   Kalm   1018,0 93 -
07:50 17,2 16,0   Kalm   1018,1 93 -
07:55 17,3 16,2   Kalm   1018,1 93 -
08:00 17,6 16,4   Kalm   1018,2 93 -
08:05 17,8 16,5   Kalm   1018,2 92 -
08:10 18,1 16,8   Kalm   1018,2 92 -
08:15 18,3 17,0   Kalm   1018,3 92 -
08:20 18,6 17,1   Kalm   1018,3 91 -
08:25 18,9 17,4   Kalm   1018,4 91 -
08:30 19,2 17,5   Kalm   1018,4 90 -
08:35 19,5 17,6   Kalm   1018,5 89 -
08:40 19,7 17,5   Kalm   1018,5 87 -
08:45 20,0 17,6   Kalm   1018,6 86 -
08:50 20,2 17,6   Kalm   1018,7 85 -
08:55 20,4 17,7   Kalm   1018,7 84 -
09:00 20,7 17,5   Kalm   1018,7 82 -
09:05 20,9 17,7   Kalm   1018,7 82 -
09:10 21,1 17,7   Kalm   1018,7 81 -
09:15 21,1 17,5   Kalm   1018,7 80 -
09:20 21,2 17,6   Kalm   1018,7 80 -
09:25 21,3 17,7   Kalm   1018,8 80 -
09:30 21,6 17,8   Kalm   1018,8 79 -
09:35 21,8 18,0   Kalm   1018,9 79 -
09:40 22,1 18,1   Kalm   1018,9 78 -
09:45 22,3 17,8   Kalm   1018,9 76 -
09:50 22,5 17,8   Kalm   1019,0 75 -
09:55 22,7 17,8   Kalm   1019,1 74 -
10:00 22,8 18,0   Kalm   1019,1 74 -
10:05 23,0 18,1   Kalm   1019,2 74 -
10:10 23,1 17,9   Kalm   1019,2 73 -
10:15 23,1 17,9   Kalm   1019,2 73 -
10:20 23,0 17,9   Kalm   1019,1 73 -
10:25 23,1 17,7   Kalm   1019,2 72 -
10:30 23,3 17,9   Kalm   1019,2 72 -
10:35 23,6 18,0   Kalm   1019,2 71 -
10:40 23,9 18,3   Kalm   1019,1 71 -
10:45 24,2 18,2   Kalm   1019,0 69 -
10:50 24,5 18,2   Kalm   1018,9 68 -
10:55 24,7 18,2   Kalm   1019,0 67 -
11:00 24,9 17,9   Kalm   1019,1 65 -
11:05 25,1 17,8   Kalm   1018,9 64 -
11:10 25,2 17,9   Kalm   1019,0 64 -
Dagelijkse Samenvatting Zondag 25 augustus 2019
Tijd Temp. ( °C ) Dew pt. ( °C ) Wind ( km/h ) van Windvlaag ( km/h ) Luchtdruk ( hPa ) Humid.( % ) Rainrate ( cm )
Hoog25,2 18,3 0,0 ( 0/0 ) 0,0 1019,2 93 -
Gemiddeld18,6 15,8 0,0 Kalm #135/135 0,0 1018,3 84 -
Laag15,6 14,0 -   0,0 1017,9 64 -
Dagelijkse Tabular details for Zondag 25 augustus 2019
Tijd Temp. ( °C ) Dew pt. ( °C ) Wind ( km/h ) van Windvlaag ( km/h ) Luchtdruk ( hPa ) Humid.( % ) Rainrate ( cm )
00:00 20,0 15,8   Kalm   1018,5 77 -
00:05 19,9 15,7   Kalm   1018,5 77 -
00:10 19,8 15,7   Kalm   1018,5 77 -
00:15 19,7 15,8   Kalm   1018,5 78 -
00:20 19,6 15,7   Kalm   1018,5 78 -
00:25 19,5 15,6   Kalm   1018,5 78 -
00:30 19,4 15,7   Kalm   1018,5 79 -
00:35 19,3 15,6   Kalm   1018,5 79 -
00:40 19,2 15,7   Kalm   1018,5 80 -
00:45 19,2 15,6   Kalm   1018,5 80 -
00:50 19,1 15,6   Kalm   1018,5 80 -
00:55 19,0 15,7   Kalm   1018,5 81 -
01:00 19,0 15,7   Kalm   1018,5 81 -
01:05 18,9 15,6   Kalm   1018,5 81 -
01:10 18,9 15,6   Kalm   1018,5 81 -
01:15 18,9 15,6   Kalm   1018,3 81 -
01:20 18,8 15,5   Kalm   1018,4 81 -
01:25 18,8 15,7   Kalm   1018,4 82 -
01:30 18,7 15,6   Kalm   1018,3 82 -
01:35 18,7 15,7   Kalm   1018,4 83 -
01:40 18,6 15,7   Kalm   1018,4 83 -
01:45 18,6 15,6   Kalm   1018,3 83 -
01:50 18,5 15,6   Kalm   1018,4 83 -
01:55 18,4 15,5   Kalm   1018,3 83 -
02:00 18,4 15,4   Kalm   1018,3 83 -
02:05 18,3 15,4   Kalm   1018,3 83 -
02:10 18,2 15,3   Kalm   1018,3 83 -
02:15 18,2 15,2   Kalm   1018,2 83 -
02:20 18,1 15,2   Kalm   1018,2 83 -
02:25 18,1 15,3   Kalm   1018,2 84 -
02:30 18,0 15,3   Kalm   1018,1 84 -
02:35 17,9 15,2   Kalm   1018,2 84 -
02:40 17,9 15,3   Kalm   1018,1 85 -
02:45 17,8 15,3   Kalm   1018,2 85 -
02:50 17,7 14,9   Kalm   1018,1 84 -
02:55 17,6 15,1   Kalm   1018,1 85 -
03:00 17,5 14,9   Kalm   1018,2 85 -
03:05 17,4 14,9   Kalm   1018,2 85 -
03:10 17,4 14,8   Kalm   1018,3 85 -
03:15 17,3 14,9   Kalm   1018,2 86 -
03:20 17,3 14,9   Kalm   1018,2 86 -
03:25 17,3 15,2   Kalm   1018,2 87 -
03:30 17,3 15,1   Kalm   1018,1 87 -
03:35 17,2 15,1   Kalm   1018,1 87 -
03:40 17,2 15,0   Kalm   1018,1 87 -
03:45 17,1 14,9   Kalm   1018,1 87 -
03:50 17,1 14,9   Kalm   1018,1 87 -
03:55 17,1 14,8   Kalm   1018,1 87 -
04:00 17,0 14,8   Kalm   1018,1 87 -
04:05 16,9 14,9   Kalm   1018,1 88 -
04:10 16,9 14,9   Kalm   1018,1 88 -
04:15 16,8 14,8   Kalm   1018,1 88 -
04:20 16,8 14,8   Kalm   1018,1 88 -
04:25 16,7 14,7   Kalm   1018,1 88 -
04:30 16,6 14,6   Kalm   1018,1 88 -
04:35 16,5 14,5   Kalm   1018,1 88 -
04:40 16,4 14,4   Kalm   1018,1 88 -
04:45 16,3 14,3   Kalm   1018,1 88 -
04:50 16,3 14,5   Kalm   1018,1 89 -
04:55 16,4 14,6   Kalm   1018,1 89 -
05:00 16,4 14,6   Kalm   1018,1 89 -
05:05 16,3 14,5   Kalm   1018,1 89 -
05:10 16,2 14,4   Kalm   1018,0 89 -
05:15 16,2 14,4   Kalm   1017,9 89 -
05:20 16,2 14,4   Kalm   1017,9 89 -
05:25 16,2 14,3   Kalm   1017,9 89 -
05:30 16,1 14,2   Kalm   1017,9 89 -
05:35 16,0 14,2   Kalm   1018,0 89 -
05:40 15,9 14,1   Kalm   1017,9 89 -
05:45 16,0 14,3   Kalm   1017,9 90 -
05:50 16,0 14,3   Kalm   1017,9 90 -
05:55 16,0 14,3   Kalm   1017,9 90 -
06:00 15,9 14,3   Kalm   1017,9 90 -
06:05 15,9 14,3   Kalm   1017,9 90 -
06:10 15,9 14,3   Kalm   1017,9 90 -
06:15 15,8 14,2   Kalm   1018,0 90 -
06:20 15,7 14,1   Kalm   1018,0 90 -
06:25 15,7 14,1   Kalm   1018,0 90 -
06:30 15,7 14,1   Kalm   1017,9 90 -
06:35 15,6 14,0   Kalm   1018,0 90 -
06:40 15,7 14,2   Kalm   1018,0 91 -
06:45 15,8 14,4   Kalm   1018,1 91 -
06:50 15,8 14,4   Kalm   1018,0 91 -
06:55 15,8 14,4   Kalm   1018,0 91 -
07:00 15,8 14,3   Kalm   1018,1 91 -
07:05 15,8 14,6   Kalm   1018,1 92 -
07:10 15,9 14,6   Kalm   1018,0 92 -
07:15 15,9 14,7   Kalm   1017,9 92 -
07:20 16,0 14,7   Kalm   1018,0 92 -
07:25 16,1 14,8   Kalm   1018,0 92 -
07:30 16,2 14,9   Kalm   1017,9 92 -
07:35 16,4 15,3   Kalm   1017,9 93 -
07:40 16,7 15,6   Kalm   1018,0 93 -
07:45 17,0 15,8   Kalm   1018,0 93 -
07:50 17,2 16,0   Kalm   1018,1 93 -
07:55 17,3 16,2   Kalm   1018,1 93 -
08:00 17,6 16,4   Kalm   1018,2 93 -
08:05 17,8 16,5   Kalm   1018,2 92 -
08:10 18,1 16,8   Kalm   1018,2 92 -
08:15 18,3 17,0   Kalm   1018,3 92 -
08:20 18,6 17,1   Kalm   1018,3 91 -
08:25 18,9 17,4   Kalm   1018,4 91 -
08:30 19,2 17,5   Kalm   1018,4 90 -
08:35 19,5 17,6   Kalm   1018,5 89 -
08:40 19,7 17,5   Kalm   1018,5 87 -
08:45 20,0 17,6   Kalm   1018,6 86 -
08:50 20,2 17,6   Kalm   1018,7 85 -
08:55 20,4 17,7   Kalm   1018,7 84 -
09:00 20,7 17,5   Kalm   1018,7 82 -
09:05 20,9 17,7   Kalm   1018,7 82 -
09:10 21,1 17,7   Kalm   1018,7 81 -
09:15 21,1 17,5   Kalm   1018,7 80 -
09:20 21,2 17,6   Kalm   1018,7 80 -
09:25 21,3 17,7   Kalm   1018,8 80 -
09:30 21,6 17,8   Kalm   1018,8 79 -
09:35 21,8 18,0   Kalm   1018,9 79 -
09:40 22,1 18,1   Kalm   1018,9 78 -
09:45 22,3 17,8   Kalm   1018,9 76 -
09:50 22,5 17,8   Kalm   1019,0 75 -
09:55 22,7 17,8   Kalm   1019,1 74 -
10:00 22,8 18,0   Kalm   1019,1 74 -
10:05 23,0 18,1   Kalm   1019,2 74 -
10:10 23,1 17,9   Kalm   1019,2 73 -
10:15 23,1 17,9   Kalm   1019,2 73 -
10:20 23,0 17,9   Kalm   1019,1 73 -
10:25 23,1 17,7   Kalm   1019,2 72 -
10:30 23,3 17,9   Kalm   1019,2 72 -
10:35 23,6 18,0   Kalm   1019,2 71 -
10:40 23,9 18,3   Kalm   1019,1 71 -
10:45 24,2 18,2   Kalm   1019,0 69 -
10:50 24,5 18,2   Kalm   1018,9 68 -
10:55 24,7 18,2   Kalm   1019,0 67 -
11:00 24,9 17,9   Kalm   1019,1 65 -
11:05 25,1 17,8   Kalm   1018,9 64 -
11:10 25,2 17,9   Kalm   1019,0 64 -

Download your copy of this data-set  here

Our weather-data as stored at Weather Underground. Script ontwikkeld door Jim McMurry. Aangepast voor de template door Leuven-Template.eu

U vindt ons ook hier:

Het Weer Aktueel

European Weather Network

Weather Underground

Benelux Weer Netwerk

Citizen Weather Observer Program (CWOP)

Apparatuur in gebruik:

Weerstation
Davis VP2

Weerprogramma
Weather Display

Weercomputer
My Computer

Webleverancier
WeservIT

Davis VP2

Weather Display

My Computer

WeservIT